Volver al catálogo

STARLINK-6119

ActivoComunicacionesVLEO
NORAD 56125·PAYLOAD·🇺🇸 United States

Lanzado Mar 29, 2023 desde Cape Canaveral Space Force Station

Loading…

Próximos Pases (próximas 24 horas)

TLE

ActualizadoSource: CelesTrak SupGP

Época: Sep 14, 2026, 22:05 UTC

1 56125C 23046AJ  26257.92062500 -.00026569  00000+0 -96254-3 0  2575
2 56125  43.0025 158.7644 0001280 264.6383 157.0681 15.27584949    16

Sigue STARLINK-6119 en tiempo real con AllMySat

Download on the App Store